Regional Weather Roundup
Issued by NWS

Home | Current Version | Previous Version | Text Only | Print | Product List | Glossary On
Versions: 1 2 3 4 5 6 7 8 9 10 11 12 13 14 15 16 17 18 19 20 21 22 23 24 25 26 27 28 29 30 31 32 33 34 35 36 37 38 39 40 41 42 43 44 45 46 47 48 49 50
000
ASUS43 KBIS 272220
RWRND

NORTH DAKOTA REGIONAL WEATHER ROUNDUP
NATIONAL WEATHER SERVICE BISMARCK ND
500 PM CDT FRI MAR 27 2015

NOTE: "FAIR" INDICATES FEW OR NO CLOUDS BELOW 12,000 FEET WITH NO
SIGNIFICANT WEATHER AND/OR OBSTRUCTIONS TO VISIBILITY.


NDZ001>003-009>011-017-272300-
NORTHWEST NORTH DAKOTA

CITY           SKY/WX    TMP DP  RH WIND       PRES   REMARKS
WILLISTON      PTSUNNY   64  36  35 NW17G26   29.88F
MINOT          PTSUNNY   51  37  58 NW17      29.86R
MINOT AFB      MOSUNNY   50  44  78 N10       29.85R
$$

NDZ018>021-031>035-040>046-272300-
SOUTHWEST NORTH DAKOTA

CITY           SKY/WX    TMP DP  RH WIND       PRES   REMARKS
BISMARCK       CLOUDY    46  32  58 SE10      29.88F
DICKINSON      PTSUNNY   64  34  32 N18G30    29.86S
GARRISON         N/A     56  39  53 NW21G26   29.85F
HETTINGER ARPT PTSUNNY   65  33  30 NW23G30   29.89S
$$

NDZ004>008-012>016-024-026-027-054-272300-
NORTHEAST NORTH DAKOTA

CITY           SKY/WX    TMP DP  RH WIND       PRES   REMARKS
GRAND FORKS    CLOUDY    34  21  59 SE16      30.07F
GRND FRKS AFB  MIX PCPN  32  25  74 S13       30.06F
DEVILS LAKE    CLOUDY    28  25  86 S17       29.96F WCI  16
$$

NDZ022-023-025-028>030-036>039-047>053-272300-
SOUTHEAST NORTH DAKOTA

CITY           SKY/WX    TMP DP  RH WIND       PRES   REMARKS
FARGO          CLOUDY    36  13  38 SW15      30.08S
JAMESTOWN      LGT SNOW  28  26  92 SE13      29.98F FOG     WCI  17
$$




USA.gov is the U.S. government's official web portal to all federal, state and local government web resources and services.